Clearfield, PA

10:28 PM EDT on June 28, 2017 (GMT -0400)
Clearfield-Lawrence

Weather History for KFIG - March, 2013

Change the Weather History Date:

Friday, March 15, 2013

  Actual Average (KDUJ) Record (KDUJ)
Temperature  
Mean Temperature 32 °F -  
Max Temperature 41 °F 43 °F 78 °F (1990)
Min Temperature 23 °F 25 °F -1 °F (1993)
Degree Days  
Heating Degree Days 33    
Moisture  
Dew Point 24 °F    
Average Humidity 68    
Maximum Humidity 88    
Minimum Humidity 57    
Precipitation  
Precipitation 0.00 in - - ()
Sea Level Pressure  
Sea Level Pressure 29.89 in    
Wind  
Wind Speed 9 mph (WSW)    
Max Wind Speed 23 mph    
Max Gust Speed 31 mph    
Visibility 9 miles    
Events Rain , Snow    
Averages and records for this station are not official NWS values.
T = Trace of Precipitation, MM = Missing Value Source: NWS Daily Summary

Daily Weather History Graph

Daily Weather History Graph

Search for Another Location

Airport or City:

Trip Planner

Search our weather history database for the weather conditions in past years. The results will help you decide how hot, cold, wet, or windy it might be!

Date:

Astronomy

Mar. 15, 2013 Rise Set
Actual Time 7:24 AM EDT 7:20 PM EDT
Civil Twilight 6:57 AM EDT 7:48 PM EDT
Nautical Twilight 6:25 AM EDT 8:20 PM EDT
Astronomical Twilight 5:53 AM EDT 8:52 PM EDT
Moon 9:11 AM EDT (3/15) 11:35 PM EDT (3/15)
Length of Visible Light 12h 50m
Length of Day
11h 55m
Waxing Crescent, 15% of the Moon is Illuminated
Mar 15
Waxing Crescent
Mar 19
First Quarter
Mar 27
Full
Apr 3
Last Quarter
Apr 10
New

Hourly Weather History & Observations

Time (EDT) Temp. Windchill Dew Point Humidity Pressure Visibility Wind Dir Wind Speed Gust Speed Precip Events Conditions
12:54 AM 24.1 °F 17.0 °F 15.1 °F 69% 30.10 in 10.0 mi West 5.8 mph - N/A   Clear
1:54 AM 23.0 °F 18.4 °F 15.1 °F 72% 30.09 in 10.0 mi WSW 3.5 mph - N/A   Clear
3:54 AM 23.0 °F 13.1 °F 15.1 °F 72% 30.04 in 10.0 mi SW 9.2 mph - N/A   Clear
4:54 AM 24.1 °F 16.0 °F 15.1 °F 69% 30.01 in 10.0 mi SW 6.9 mph - N/A   Mostly Cloudy
5:54 AM 24.1 °F 16.0 °F 16.0 °F 71% 30.01 in 10.0 mi SW 6.9 mph - N/A   Clear
6:54 AM 25.0 °F 17.1 °F 18.0 °F 75% 29.99 in 10.0 mi SSW 6.9 mph - N/A   Overcast
7:54 AM 27.0 °F 19.5 °F 19.0 °F 72% 29.97 in 10.0 mi SSW 6.9 mph - N/A   Overcast
8:54 AM 28.9 °F 19.8 °F 19.9 °F 69% 29.96 in 10.0 mi SSW 10.4 mph - N/A   Overcast
9:41 AM 30.2 °F 21.9 °F 19.4 °F 64% 29.89 in 10.0 mi SW 9.2 mph - N/A   Overcast
9:54 AM 30.9 °F 23.5 °F 19.9 °F 64% 29.94 in 10.0 mi SW 8.1 mph - N/A   Overcast
10:54 AM 32.0 °F 24.8 °F 21.0 °F 64% 29.92 in 10.0 mi SW 8.1 mph 24.2 mph N/A   Overcast
11:54 AM 34.0 °F 26.0 °F 23.0 °F 64% 29.90 in 10.0 mi WSW 10.4 mph 20.7 mph N/A   Overcast
12:34 PM 37.4 °F 27.5 °F 24.8 °F 60% 29.82 in 10.0 mi WSW 18.4 mph 29.9 mph N/A   Overcast
12:54 PM 37.0 °F 25.9 °F 25.0 °F 62% 29.86 in 10.0 mi WSW 23.0 mph 31.1 mph N/A   Overcast
1:12 PM 37.4 °F 27.2 °F 24.8 °F 60% 29.81 in 10.0 mi SW 19.6 mph 25.3 mph N/A   Overcast
1:54 PM 37.9 °F 28.9 °F 27.0 °F 65% 29.84 in 10.0 mi WSW 16.1 mph 31.1 mph N/A   Overcast
2:22 PM 39.2 °F 32.0 °F 26.6 °F 61% 29.78 in 10.0 mi West 11.5 mph 31.1 mph N/A   Overcast
2:54 PM 39.9 °F 32.9 °F 27.0 °F 60% 29.81 in 10.0 mi WSW 11.5 mph 27.6 mph N/A   Overcast
3:54 PM 41.0 °F 33.5 °F 27.0 °F 57% 29.81 in 10.0 mi WSW 13.8 mph 20.7 mph N/A   Overcast
4:54 PM 41.0 °F 33.1 °F 27.0 °F 57% 29.80 in 10.0 mi West 15.0 mph 21.9 mph N/A   Overcast
5:54 PM 41.0 °F 37.1 °F 27.0 °F 57% 29.80 in 10.0 mi West 5.8 mph 19.6 mph N/A   Overcast
6:54 PM 39.9 °F 34.5 °F 28.0 °F 63% 29.82 in 10.0 mi West 8.1 mph 18.4 mph N/A   Overcast
7:44 PM 39.2 °F 33.0 °F 28.4 °F 65% 29.79 in 10.0 mi West 9.2 mph 18.4 mph N/A   Overcast
7:54 PM 39.0 °F 33.4 °F 28.9 °F 67% 29.84 in 10.0 mi West 8.1 mph - N/A   Overcast
8:54 PM 36.0 °F 30.3 °F 30.0 °F 79% 29.87 in 10.0 mi WNW 6.9 mph - 0.00 in Rain Light Rain
9:54 PM 34.0 °F 27.2 °F 30.0 °F 85% 29.87 in 6.0 mi NW 8.1 mph - 0.00 in Snow Light Snow
10:54 PM 33.1 °F 25.5 °F 28.9 °F 85% 29.87 in 2.5 mi NW 9.2 mph - 0.00 in Snow Light Snow
11:04 PM 33.8 °F 27.0 °F 28.4 °F 81% 29.83 in 3.0 mi NW 8.1 mph - 0.00 in Snow Light Snow
11:54 PM 32.0 °F 25.6 °F 28.9 °F 88% 29.86 in 5.0 mi NW 6.9 mph - 0.00 in Snow Light Snow